Time,TemperatureF,DewpointF,PressureIn,WindDirection,WindDirectionDegrees,WindSpeedMPH,WindSpeedGustMPH,Humidity,HourlyPrecipIn,Conditions,Clouds,dailyrainin,SoftwareType,DateUTC
2013-06-03 00:02:00,68.3,57.3,30.54,NE,51,5.0,8.0,68,0.00,,,0.00,Weather View 32 v70,2013-06-03 05:02:00,
2013-06-03 00:07:00,68.2,57.6,30.54,NNE,28,4.0,8.0,69,0.00,,,0.00,Weather View 32 v70,2013-06-03 05:07:00,
2013-06-03 00:12:00,68.1,57.5,30.54,NNE,28,3.0,8.0,69,0.00,,,0.00,Weather View 32 v70,2013-06-03 05:12:00,
2013-06-03 00:17:00,68.0,57.4,30.55,NE,51,1.0,8.0,69,0.00,,,0.00,Weather View 32 v70,2013-06-03 05:17:00,
2013-06-03 00:22:00,67.9,57.3,30.55,ENE,73,2.0,8.0,69,0.00,,,0.00,Weather View 32 v70,2013-06-03 05:22:00,
2013-06-03 00:27:00,67.8,57.6,30.55,North,6,1.0,8.0,70,0.00,,,0.00,Weather View 32 v70,2013-06-03 05:27:00,
2013-06-03 00:32:00,67.6,57.4,30.55,NE,51,2.0,8.0,70,0.00,,,0.00,Weather View 32 v70,2013-06-03 05:32:00,
2013-06-03 00:37:00,67.4,57.2,30.55,North,6,3.0,8.0,70,0.00,,,0.00,Weather View 32 v70,2013-06-03 05:37:00,
2013-06-03 00:42:00,67.2,57.4,30.55,NE,51,3.0,8.0,71,0.00,,,0.00,Weather View 32 v70,2013-06-03 05:42:00,
2013-06-03 00:47:00,66.9,57.2,30.55,NNE,28,3.0,8.0,71,0.00,,,0.00,Weather View 32 v70,2013-06-03 05:47:00,
2013-06-03 00:52:00,66.7,57.4,30.55,ENE,73,3.0,8.0,72,0.00,,,0.00,Weather View 32 v70,2013-06-03 05:52:00,
2013-06-03 00:57:00,66.6,57.3,30.56,NNE,28,3.0,8.0,72,0.00,,,0.00,Weather View 32 v70,2013-06-03 05:57:00,
2013-06-03 01:02:00,66.5,57.6,30.55,North,6,3.0,8.0,73,0.00,,,0.00,Weather View 32 v70,2013-06-03 06:02:00,
2013-06-03 01:07:00,66.4,57.5,30.55,NE,51,2.0,8.0,73,0.00,,,0.00,Weather View 32 v70,2013-06-03 06:07:00,
2013-06-03 01:12:00,66.4,57.5,30.55,NE,51,3.0,8.0,73,0.00,,,0.00,Weather View 32 v70,2013-06-03 06:12:00,
2013-06-03 01:17:00,66.3,57.4,30.56,ENE,73,3.0,8.0,73,0.00,,,0.00,Weather View 32 v70,2013-06-03 06:17:00,
2013-06-03 01:22:00,66.3,57.4,30.55,NNE,28,3.0,8.0,73,0.00,,,0.00,Weather View 32 v70,2013-06-03 06:22:00,
2013-06-03 01:27:00,66.3,57.4,30.55,ENE,73,4.0,6.0,73,0.00,,,0.00,Weather View 32 v70,2013-06-03 06:27:00,
2013-06-03 01:32:00,66.3,57.4,30.56,NNE,28,3.0,6.0,73,0.00,,,0.00,Weather View 32 v70,2013-06-03 06:32:00,
2013-06-03 01:37:00,66.3,57.4,30.56,North,6,3.0,6.0,73,0.00,,,0.00,Weather View 32 v70,2013-06-03 06:37:00,
2013-06-03 01:42:00,66.0,57.1,30.55,North,6,4.0,6.0,73,0.00,,,0.00,Weather View 32 v70,2013-06-03 06:42:00,
2013-06-03 01:47:00,65.8,57.3,30.55,North,6,3.0,6.0,74,0.00,,,0.00,Weather View 32 v70,2013-06-03 06:47:00,
2013-06-03 01:52:00,65.3,57.1,30.55,NE,51,2.0,6.0,75,0.00,,,0.00,Weather View 32 v70,2013-06-03 06:52:00,
2013-06-03 01:57:00,65.1,57.3,30.55,NNE,28,3.0,6.0,76,0.00,,,0.00,Weather View 32 v70,2013-06-03 06:57:00,
2013-06-03 02:02:00,64.9,57.1,30.55,NNE,28,2.0,6.0,76,0.00,,,0.00,Weather View 32 v70,2013-06-03 07:02:00,
2013-06-03 02:07:00,64.9,57.1,30.55,NE,51,3.0,6.0,76,0.00,,,0.00,Weather View 32 v70,2013-06-03 07:07:00,
2013-06-03 02:12:00,65.1,57.0,30.55,NE,51,3.0,6.0,75,0.00,,,0.00,Weather View 32 v70,2013-06-03 07:12:00,
2013-06-03 02:17:00,65.2,57.1,30.55,NE,51,3.0,6.0,75,0.00,,,0.00,Weather View 32 v70,2013-06-03 07:17:00,
2013-06-03 02:22:00,65.2,57.1,30.56,NE,51,3.0,6.0,75,0.00,,,0.00,Weather View 32 v70,2013-06-03 07:22:00,
2013-06-03 02:27:00,65.0,56.9,30.56,NE,51,3.0,6.0,75,0.00,,,0.00,Weather View 32 v70,2013-06-03 07:27:00,
2013-06-03 02:32:00,64.8,56.7,30.56,NNE,28,3.0,7.0,75,0.00,,,0.00,Weather View 32 v70,2013-06-03 07:32:00,
2013-06-03 02:37:00,64.9,56.8,30.56,NE,51,2.0,7.0,75,0.00,,,0.00,Weather View 32 v70,2013-06-03 07:37:00,
2013-06-03 02:42:00,65.1,56.6,30.55,NE,51,4.0,7.0,74,0.00,,,0.00,Weather View 32 v70,2013-06-03 07:42:00,
2013-06-03 02:47:00,65.2,56.7,30.56,NE,51,3.0,7.0,74,0.00,,,0.00,Weather View 32 v70,2013-06-03 07:47:00,
2013-06-03 02:52:00,65.2,56.7,30.56,NNE,28,1.0,7.0,74,0.00,,,0.00,Weather View 32 v70,2013-06-03 07:52:00,
2013-06-03 02:57:00,65.0,56.5,30.57,NE,51,2.0,7.0,74,0.00,,,0.00,Weather View 32 v70,2013-06-03 07:57:00,
2013-06-03 03:02:00,64.6,56.5,30.56,NE,51,2.0,7.0,75,0.00,,,0.00,Weather View 32 v70,2013-06-03 08:02:00,
2013-06-03 03:07:00,64.4,56.6,30.57,NE,51,3.0,7.0,76,0.00,,,0.00,Weather View 32 v70,2013-06-03 08:07:00,
2013-06-03 03:12:00,64.4,56.6,30.56,NE,51,3.0,7.0,76,0.00,,,0.00,Weather View 32 v70,2013-06-03 08:12:00,
2013-06-03 03:17:00,64.5,56.7,30.57,NE,51,3.0,7.0,76,0.00,,,0.00,Weather View 32 v70,2013-06-03 08:17:00,
2013-06-03 03:22:00,64.5,56.7,30.57,NNE,28,1.0,7.0,76,0.00,,,0.00,Weather View 32 v70,2013-06-03 08:22:00,
2013-06-03 03:27:00,64.5,56.7,30.56,NE,51,2.0,7.0,76,0.00,,,0.00,Weather View 32 v70,2013-06-03 08:27:00,
2013-06-03 03:32:00,64.4,56.6,30.56,North,6,3.0,7.0,76,0.00,,,0.00,Weather View 32 v70,2013-06-03 08:32:00,
2013-06-03 03:37:00,64.2,56.8,30.56,NNE,28,3.0,7.0,77,0.00,,,0.00,Weather View 32 v70,2013-06-03 08:37:00,
2013-06-03 03:42:00,64.0,56.6,30.57,NE,51,4.0,8.0,77,0.00,,,0.00,Weather View 32 v70,2013-06-03 08:42:00,
2013-06-03 03:47:00,64.0,56.6,30.57,NNE,28,5.0,8.0,77,0.00,,,0.00,Weather View 32 v70,2013-06-03 08:47:00,
2013-06-03 03:52:00,64.0,56.6,30.56,ENE,73,3.0,8.0,77,0.00,,,0.00,Weather View 32 v70,2013-06-03 08:52:00,
2013-06-03 03:57:00,64.0,56.6,30.56,NNE,28,3.0,8.0,77,0.00,,,0.00,Weather View 32 v70,2013-06-03 08:57:00,
2013-06-03 04:02:00,63.9,56.5,30.56,NE,51,3.0,8.0,77,0.00,,,0.00,Weather View 32 v70,2013-06-03 09:02:00,
2013-06-03 04:07:00,63.9,56.5,30.57,North,6,3.0,8.0,77,0.00,,,0.00,Weather View 32 v70,2013-06-03 09:07:00,
2013-06-03 04:12:00,63.9,56.9,30.57,NE,51,4.0,8.0,78,0.00,,,0.00,Weather View 32 v70,2013-06-03 09:12:00,
2013-06-03 04:17:00,63.8,56.8,30.57,North,6,3.0,8.0,78,0.00,,,0.00,Weather View 32 v70,2013-06-03 09:17:00,
2013-06-03 04:22:00,63.8,56.8,30.57,NNE,28,3.0,8.0,78,0.00,,,0.00,Weather View 32 v70,2013-06-03 09:22:00,
2013-06-03 04:27:00,63.8,56.8,30.57,NNE,28,3.0,8.0,78,0.00,,,0.00,Weather View 32 v70,2013-06-03 09:27:00,
2013-06-03 04:32:00,63.9,56.5,30.57,NE,51,5.0,8.0,77,0.00,,,0.00,Weather View 32 v70,2013-06-03 09:32:00,
2013-06-03 04:37:00,63.9,56.5,30.57,NE,51,2.0,8.0,77,0.00,,,0.00,Weather View 32 v70,2013-06-03 09:37:00,
2013-06-03 04:42:00,63.8,56.8,30.57,ENE,73,3.0,8.0,78,0.00,,,0.00,Weather View 32 v70,2013-06-03 09:42:00,
2013-06-03 04:47:00,63.5,56.5,30.57,NE,51,5.0,8.0,78,0.00,,,0.00,Weather View 32 v70,2013-06-03 09:47:00,
2013-06-03 04:52:00,63.4,56.8,30.57,ENE,73,5.0,8.0,79,0.00,,,0.00,Weather View 32 v70,2013-06-03 09:52:00,
2013-06-03 04:57:00,63.4,56.8,30.56,NE,51,5.0,7.0,79,0.00,,,0.00,Weather View 32 v70,2013-06-03 09:57:00,
2013-06-03 05:02:00,63.3,56.7,30.56,NNE,28,5.0,8.0,79,0.00,,,0.00,Weather View 32 v70,2013-06-03 10:02:00,
2013-06-03 05:07:00,63.2,56.6,30.56,NE,51,5.0,8.0,79,0.00,,,0.00,Weather View 32 v70,2013-06-03 10:07:00,
2013-06-03 05:12:00,63.1,56.8,30.56,NE,51,6.0,11.0,80,0.00,,,0.00,Weather View 32 v70,2013-06-03 10:12:00,
2013-06-03 05:17:00,63.1,56.8,30.56,NE,51,6.0,11.0,80,0.00,,,0.00,Weather View 32 v70,2013-06-03 10:17:00,
2013-06-03 05:22:00,63.2,56.9,30.56,NE,51,6.0,11.0,80,0.00,,,0.00,Weather View 32 v70,2013-06-03 10:22:00,
2013-06-03 05:27:00,63.2,56.9,30.56,ENE,73,6.0,11.0,80,0.00,,,0.00,Weather View 32 v70,2013-06-03 10:27:00,
2013-06-03 05:32:00,63.2,56.9,30.56,NE,51,4.0,11.0,80,0.00,,,0.00,Weather View 32 v70,2013-06-03 10:32:00,
2013-06-03 05:37:00,63.2,56.9,30.56,ENE,73,4.0,11.0,80,0.00,,,0.00,Weather View 32 v70,2013-06-03 10:37:00,
2013-06-03 05:42:00,63.1,56.8,30.56,NE,51,5.0,11.0,80,0.00,,,0.00,Weather View 32 v70,2013-06-03 10:42:00,
2013-06-03 05:47:00,63.0,56.7,30.56,NE,51,5.0,11.0,80,0.00,,,0.00,Weather View 32 v70,2013-06-03 10:47:00,
2013-06-03 05:52:00,62.8,56.9,30.56,ENE,73,4.0,11.0,81,0.00,,,0.00,Weather View 32 v70,2013-06-03 10:52:00,
2013-06-03 05:57:00,62.7,56.8,30.56,ENE,73,6.0,11.0,81,0.00,,,0.00,Weather View 32 v70,2013-06-03 10:57:00,
2013-06-03 06:02:00,62.5,56.9,30.56,ENE,73,3.0,11.0,82,0.00,,,0.00,Weather View 32 v70,2013-06-03 11:02:00,
2013-06-03 06:07:00,62.3,56.7,30.56,ENE,73,3.0,11.0,82,0.00,,,0.00,Weather View 32 v70,2013-06-03 11:07:00,
2013-06-03 06:12:00,62.3,57.1,30.56,ENE,73,5.0,10.0,83,0.00,,,0.00,Weather View 32 v70,2013-06-03 11:12:00,
2013-06-03 06:17:00,62.1,56.9,30.56,ENE,73,6.0,10.0,83,0.00,,,0.00,Weather View 32 v70,2013-06-03 11:17:00,
2013-06-03 06:22:00,62.0,57.1,30.56,East,96,5.0,10.0,84,0.00,,,0.00,Weather View 32 v70,2013-06-03 11:22:00,
2013-06-03 06:27:00,61.8,56.9,30.56,ENE,73,5.0,10.0,84,0.00,,,0.00,Weather View 32 v70,2013-06-03 11:27:00,
2013-06-03 06:32:00,61.8,56.9,30.57,ENE,73,5.0,10.0,84,0.00,,,0.00,Weather View 32 v70,2013-06-03 11:32:00,
2013-06-03 06:37:00,62.0,57.1,30.57,ENE,73,6.0,10.0,84,0.00,,,0.00,Weather View 32 v70,2013-06-03 11:37:00,
2013-06-03 06:42:00,62.0,57.1,30.56,NE,51,5.0,8.0,84,0.00,,,0.00,Weather View 32 v70,2013-06-03 11:42:00,
2013-06-03 06:47:00,62.2,57.3,30.56,East,96,6.0,8.0,84,0.00,,,0.00,Weather View 32 v70,2013-06-03 11:47:00,
2013-06-03 06:52:00,62.5,57.6,30.56,ENE,73,6.0,9.0,84,0.00,,,0.00,Weather View 32 v70,2013-06-03 11:52:00,
2013-06-03 06:57:00,62.8,57.9,30.56,NNE,28,6.0,10.0,84,0.00,,,0.00,Weather View 32 v70,2013-06-03 11:57:00,
2013-06-03 07:02:00,63.0,57.7,30.56,ENE,73,6.0,10.0,83,0.00,,,0.00,Weather View 32 v70,2013-06-03 12:02:00,
2013-06-03 07:07:00,63.2,57.9,30.56,ENE,73,7.0,10.0,83,0.00,,,0.00,Weather View 32 v70,2013-06-03 12:07:00,
2013-06-03 07:12:00,63.7,58.1,30.56,ENE,73,9.0,10.0,82,0.00,,,0.00,Weather View 32 v70,2013-06-03 12:12:00,
2013-06-03 07:17:00,64.1,58.1,30.56,ENE,73,5.0,10.0,81,0.00,,,0.00,Weather View 32 v70,2013-06-03 12:17:00,
2013-06-03 07:22:00,64.5,58.5,30.56,ENE,73,5.0,11.0,81,0.00,,,0.00,Weather View 32 v70,2013-06-03 12:22:00,
2013-06-03 07:27:00,64.8,58.5,30.56,ENE,73,6.0,11.0,80,0.00,,,0.00,Weather View 32 v70,2013-06-03 12:27:00,
2013-06-03 07:32:00,65.0,58.7,30.56,East,96,6.0,11.0,80,0.00,,,0.00,Weather View 32 v70,2013-06-03 12:32:00,
2013-06-03 07:37:00,64.7,58.4,30.56,ESE,118,7.0,11.0,80,0.00,,,0.00,Weather View 32 v70,2013-06-03 12:37:00,
2013-06-03 07:42:00,64.7,58.4,30.57,ESE,118,7.0,11.0,80,0.00,,,0.00,Weather View 32 v70,2013-06-03 12:42:00,
2013-06-03 07:47:00,64.6,58.3,30.56,East,96,9.0,11.0,80,0.00,,,0.00,Weather View 32 v70,2013-06-03 12:47:00,
2013-06-03 07:52:00,64.7,58.4,30.56,ENE,73,7.0,11.0,80,0.00,,,0.00,Weather View 32 v70,2013-06-03 12:52:00,
2013-06-03 07:57:00,64.7,58.7,30.56,East,96,7.0,11.0,81,0.00,,,0.00,Weather View 32 v70,2013-06-03 12:57:00,
2013-06-03 08:02:00,65.0,59.0,30.57,ESE,118,4.0,11.0,81,0.00,,,0.00,Weather View 32 v70,2013-06-03 13:02:00,
2013-06-03 08:07:00,65.4,59.0,30.57,East,96,6.0,11.0,80,0.00,,,0.00,Weather View 32 v70,2013-06-03 13:07:00,
2013-06-03 08:12:00,65.6,58.9,30.57,East,96,8.0,11.0,79,0.00,,,0.00,Weather View 32 v70,2013-06-03 13:12:00,
2013-06-03 08:17:00,66.1,59.7,30.56,East,96,6.0,11.0,80,0.00,,,0.00,Weather View 32 v70,2013-06-03 13:17:00,
2013-06-03 08:22:00,66.5,59.4,30.56,ESE,118,8.0,11.0,78,0.00,,,0.00,Weather View 32 v70,2013-06-03 13:22:00,
2013-06-03 08:27:00,66.7,60.0,30.56,ENE,73,8.0,14.0,79,0.00,,,0.00,Weather View 32 v70,2013-06-03 13:27:00,
2013-06-03 08:32:00,67.7,60.6,30.56,ESE,118,5.0,14.0,78,0.00,,,0.00,Weather View 32 v70,2013-06-03 13:32:00,
2013-06-03 08:37:00,67.9,60.0,30.55,East,96,8.0,14.0,76,0.00,,,0.00,Weather View 32 v70,2013-06-03 13:37:00,
2013-06-03 08:42:00,68.0,60.1,30.56,East,96,9.0,14.0,76,0.00,,,0.00,Weather View 32 v70,2013-06-03 13:42:00,
2013-06-03 08:47:00,68.2,60.7,30.56,East,96,7.0,14.0,77,0.00,,,0.00,Weather View 32 v70,2013-06-03 13:47:00,
2013-06-03 08:52:00,69.2,61.7,30.56,SSE,163,6.0,14.0,77,0.00,,,0.00,Weather View 32 v70,2013-06-03 13:52:00,
2013-06-03 08:57:00,69.0,60.3,30.55,ESE,118,8.0,14.0,74,0.00,,,0.00,Weather View 32 v70,2013-06-03 13:57:00,
2013-06-03 09:02:00,69.3,60.6,30.56,ESE,118,8.0,14.0,74,0.00,,,0.00,Weather View 32 v70,2013-06-03 14:02:00,
2013-06-03 09:07:00,69.4,60.7,30.56,ESE,118,8.0,14.0,74,0.00,,,0.00,Weather View 32 v70,2013-06-03 14:07:00,
2013-06-03 09:12:00,69.8,61.1,30.56,ESE,118,10.0,14.0,74,0.00,,,0.00,Weather View 32 v70,2013-06-03 14:12:00,
2013-06-03 09:17:00,70.3,61.2,30.56,ENE,73,6.0,14.0,73,0.00,,,0.00,Weather View 32 v70,2013-06-03 14:17:00,
2013-06-03 09:22:00,70.8,61.7,30.56,ESE,118,5.0,14.0,73,0.00,,,0.00,Weather View 32 v70,2013-06-03 14:22:00,
2013-06-03 09:27:00,71.5,62.4,30.56,South,186,5.0,13.0,73,0.00,,,0.00,Weather View 32 v70,2013-06-03 14:27:00,
2013-06-03 09:32:00,72.7,63.1,30.56,ESE,118,5.0,13.0,72,0.00,,,0.00,Weather View 32 v70,2013-06-03 14:32:00,
2013-06-03 09:37:00,72.7,62.3,30.56,ESE,118,8.0,13.0,70,0.00,,,0.00,Weather View 32 v70,2013-06-03 14:37:00,
2013-06-03 09:42:00,72.9,62.1,30.56,East,96,4.0,13.0,69,0.00,,,0.00,Weather View 32 v70,2013-06-03 14:42:00,
2013-06-03 09:47:00,72.9,61.3,30.56,SE,141,6.0,12.0,67,0.00,,,0.00,Weather View 32 v70,2013-06-03 14:47:00,
2013-06-03 09:52:00,72.9,61.7,30.56,South,186,6.0,12.0,68,0.00,,,0.00,Weather View 32 v70,2013-06-03 14:52:00,
2013-06-03 09:57:00,73.1,61.9,30.56,South,186,6.0,12.0,68,0.00,,,0.00,Weather View 32 v70,2013-06-03 14:57:00,
2013-06-03 10:02:00,73.1,61.5,30.56,SSE,163,10.0,10.0,67,0.00,,,0.00,Weather View 32 v70,2013-06-03 15:02:00,
2013-06-03 10:07:00,73.7,62.4,30.56,SSE,163,8.0,10.0,68,0.00,,,0.00,Weather View 32 v70,2013-06-03 15:07:00,
2013-06-03 10:12:00,74.4,63.5,30.56,SE,141,4.0,10.0,69,0.00,,,0.00,Weather View 32 v70,2013-06-03 15:12:00,
2013-06-03 10:17:00,73.9,60.5,30.56,SE,141,10.0,11.0,63,0.00,,,0.00,Weather View 32 v70,2013-06-03 15:17:00,
2013-06-03 10:22:00,74.3,61.3,30.56,SE,141,5.0,11.0,64,0.00,,,0.00,Weather View 32 v70,2013-06-03 15:22:00,
2013-06-03 10:27:00,74.7,62.1,30.56,SSW,208,3.0,11.0,65,0.00,,,0.00,Weather View 32 v70,2013-06-03 15:27:00,
2013-06-03 10:32:00,75.2,61.7,30.56,SSE,163,5.0,11.0,63,0.00,,,0.00,Weather View 32 v70,2013-06-03 15:32:00,
2013-06-03 10:37:00,75.4,61.0,30.56,SE,141,8.0,11.0,61,0.00,,,0.00,Weather View 32 v70,2013-06-03 15:37:00,
2013-06-03 10:42:00,74.9,59.6,30.55,SSE,163,9.0,11.0,59,0.00,,,0.00,Weather View 32 v70,2013-06-03 15:42:00,
2013-06-03 10:47:00,75.1,60.7,30.55,SSE,163,9.0,12.0,61,0.00,,,0.00,Weather View 32 v70,2013-06-03 15:47:00,
2013-06-03 10:52:00,75.8,59.9,30.55,South,186,6.0,12.0,58,0.00,,,0.00,Weather View 32 v70,2013-06-03 15:52:00,
2013-06-03 10:57:00,75.4,59.5,30.56,SSW,208,5.0,12.0,58,0.00,,,0.00,Weather View 32 v70,2013-06-03 15:57:00,
2013-06-03 11:02:00,75.9,61.0,30.56,SSW,208,4.0,12.0,60,0.00,,,0.00,Weather View 32 v70,2013-06-03 16:02:00,
2013-06-03 11:07:00,76.3,59.9,30.56,ESE,118,2.0,12.0,57,0.00,,,0.00,Weather View 32 v70,2013-06-03 16:07:00,
2013-06-03 11:12:00,76.2,60.8,30.55,SSE,163,6.0,12.0,59,0.00,,,0.00,Weather View 32 v70,2013-06-03 16:12:00,
2013-06-03 11:17:00,76.4,61.0,30.55,SE,141,4.0,12.0,59,0.00,,,0.00,Weather View 32 v70,2013-06-03 16:17:00,
2013-06-03 11:22:00,76.6,60.2,30.55,SW,231,6.0,12.0,57,0.00,,,0.00,Weather View 32 v70,2013-06-03 16:22:00,
2013-06-03 11:27:00,76.9,59.4,30.54,East,96,3.0,12.0,55,0.00,,,0.00,Weather View 32 v70,2013-06-03 16:27:00,
2013-06-03 11:32:00,76.9,60.0,30.54,SE,141,7.0,12.0,56,0.00,,,0.00,Weather View 32 v70,2013-06-03 16:32:00,
2013-06-03 11:37:00,77.5,60.5,30.53,SSW,208,4.0,12.0,56,0.00,,,0.00,Weather View 32 v70,2013-06-03 16:37:00,
2013-06-03 11:42:00,77.4,59.9,30.53,SSE,163,7.0,12.0,55,0.00,,,0.00,Weather View 32 v70,2013-06-03 16:42:00,
2013-06-03 11:47:00,77.8,59.8,30.53,SSE,163,5.0,11.0,54,0.00,,,0.00,Weather View 32 v70,2013-06-03 16:47:00,
2013-06-03 11:52:00,77.5,59.0,30.53,South,186,1.0,11.0,53,0.00,,,0.00,Weather View 32 v70,2013-06-03 16:52:00,
2013-06-03 11:57:00,77.9,59.9,30.53,SW,231,5.0,11.0,54,0.00,,,0.00,Weather View 32 v70,2013-06-03 16:57:00,
2013-06-03 12:02:00,78.1,60.0,30.53,SSE,163,5.0,11.0,54,0.00,,,0.00,Weather View 32 v70,2013-06-03 17:02:00,
2013-06-03 12:08:00,78.7,61.1,30.53,SSE,163,6.0,11.0,55,0.00,,,0.00,Weather View 32 v70,2013-06-03 17:08:00,
2013-06-03 12:12:00,78.3,59.2,30.53,NW,321,0.0,11.0,52,0.00,,,0.00,Weather View 32 v70,2013-06-03 17:12:00,
2013-06-03 12:18:00,79.6,61.4,30.53,SE,141,7.0,11.0,54,0.00,,,0.00,Weather View 32 v70,2013-06-03 17:18:00,
2013-06-03 12:22:00,79.1,59.4,30.53,ESE,118,1.0,11.0,51,0.00,,,0.00,Weather View 32 v70,2013-06-03 17:22:00,
2013-06-03 12:27:00,78.8,59.1,30.52,SE,141,5.0,11.0,51,0.00,,,0.00,Weather View 32 v70,2013-06-03 17:27:00,
2013-06-03 12:32:00,79.0,59.3,30.52,ESE,118,5.0,11.0,51,0.00,,,0.00,Weather View 32 v70,2013-06-03 17:32:00,
2013-06-03 12:37:00,79.8,60.5,30.52,NE,51,5.0,11.0,52,0.00,,,0.00,Weather View 32 v70,2013-06-03 17:37:00,
2013-06-03 12:42:00,79.4,59.1,30.52,South,186,3.0,11.0,50,0.00,,,0.00,Weather View 32 v70,2013-06-03 17:42:00,
2013-06-03 12:48:00,79.9,59.5,30.52,SE,141,9.0,11.0,50,0.00,,,0.00,Weather View 32 v70,2013-06-03 17:48:00,
2013-06-03 12:52:00,79.8,58.9,30.51,ESE,118,6.0,11.0,49,0.00,,,0.00,Weather View 32 v70,2013-06-03 17:52:00,
2013-06-03 12:57:00,80.0,58.5,30.52,East,96,2.0,11.0,48,0.00,,,0.00,Weather View 32 v70,2013-06-03 17:57:00,
2013-06-03 13:02:00,80.7,59.7,30.51,NE,51,2.0,11.0,49,0.00,,,0.00,Weather View 32 v70,2013-06-03 18:02:00,
2013-06-03 13:08:00,81.4,60.3,30.51,SSE,163,1.0,11.0,49,0.00,,,0.00,Weather View 32 v70,2013-06-03 18:08:00,
2013-06-03 13:13:00,81.5,61.0,30.51,ESE,118,5.0,11.0,50,0.00,,,0.00,Weather View 32 v70,2013-06-03 18:13:00,
2013-06-03 13:18:00,81.3,60.2,30.50,WSW,253,1.0,13.0,49,0.00,,,0.00,Weather View 32 v70,2013-06-03 18:18:00,
2013-06-03 13:23:00,81.4,60.3,30.51,SE,141,6.0,13.0,49,0.00,,,0.00,Weather View 32 v70,2013-06-03 18:23:00,
2013-06-03 13:28:00,81.3,59.1,30.50,SSE,163,5.0,13.0,47,0.00,,,0.00,Weather View 32 v70,2013-06-03 18:28:00,
2013-06-03 13:33:00,81.8,58.9,30.50,SSE,163,7.0,13.0,46,0.00,,,0.00,Weather View 32 v70,2013-06-03 18:33:00,
2013-06-03 13:38:00,82.2,59.3,30.50,SE,141,7.0,13.0,46,0.00,,,0.00,Weather View 32 v70,2013-06-03 18:38:00,
2013-06-03 13:43:00,81.4,56.7,30.50,SSW,208,5.0,13.0,43,0.00,,,0.00,Weather View 32 v70,2013-06-03 18:43:00,
2013-06-03 13:48:00,82.1,59.2,30.50,SE,141,5.0,13.0,46,0.00,,,0.00,Weather View 32 v70,2013-06-03 18:48:00,
2013-06-03 13:53:00,82.6,59.6,30.50,ESE,118,5.0,13.0,46,0.00,,,0.00,Weather View 32 v70,2013-06-03 18:53:00,
2013-06-03 13:58:00,83.1,60.7,30.49,SE,141,4.0,13.0,47,0.00,,,0.00,Weather View 32 v70,2013-06-03 18:58:00,
2013-06-03 14:03:00,82.5,57.0,30.50,South,186,8.0,13.0,42,0.00,,,0.00,Weather View 32 v70,2013-06-03 19:03:00,
2013-06-03 14:08:00,82.3,57.5,30.49,SSW,208,6.0,13.0,43,0.00,,,0.00,Weather View 32 v70,2013-06-03 19:08:00,
2013-06-03 14:13:00,83.2,58.9,30.49,East,96,1.0,13.0,44,0.00,,,0.00,Weather View 32 v70,2013-06-03 19:13:00,
2013-06-03 14:18:00,83.5,59.2,30.49,WSW,253,4.0,11.0,44,0.00,,,0.00,Weather View 32 v70,2013-06-03 19:18:00,
2013-06-03 14:22:00,83.6,58.7,30.49,SSE,163,3.0,11.0,43,0.00,,,0.00,Weather View 32 v70,2013-06-03 19:22:00,
2013-06-03 14:27:00,83.9,58.9,30.48,South,186,5.0,11.0,43,0.00,,,0.00,Weather View 32 v70,2013-06-03 19:27:00,
2013-06-03 14:33:00,83.3,57.7,30.48,South,186,7.0,11.0,42,0.00,,,0.00,Weather View 32 v70,2013-06-03 19:33:00,
2013-06-03 14:38:00,83.6,57.3,30.48,NNW,343,0.0,11.0,41,0.00,,,0.00,Weather View 32 v70,2013-06-03 19:38:00,
2013-06-03 14:43:00,83.6,57.3,30.48,South,186,7.0,11.0,41,0.00,,,0.00,Weather View 32 v70,2013-06-03 19:43:00,
2013-06-03 14:48:00,84.3,58.6,30.48,SW,231,3.0,10.0,42,0.00,,,0.00,Weather View 32 v70,2013-06-03 19:48:00,
2013-06-03 14:53:00,84.3,58.6,30.48,SW,231,6.0,10.0,42,0.00,,,0.00,Weather View 32 v70,2013-06-03 19:53:00,
2013-06-03 14:57:00,85.1,58.0,30.48,East,96,1.0,10.0,40,0.00,,,0.00,Weather View 32 v70,2013-06-03 19:57:00,
2013-06-03 15:03:00,84.7,56.2,30.47,SSW,208,2.0,10.0,38,0.00,,,0.00,Weather View 32 v70,2013-06-03 20:03:00,
2013-06-03 15:08:00,85.3,59.5,30.47,SE,141,5.0,10.0,42,0.00,,,0.00,Weather View 32 v70,2013-06-03 20:08:00,
2013-06-03 15:13:00,85.1,58.7,30.47,North,6,0.0,10.0,41,0.00,,,0.00,Weather View 32 v70,2013-06-03 20:13:00,
2013-06-03 15:18:00,84.9,57.8,30.47,South,186,8.0,10.0,40,0.00,,,0.00,Weather View 32 v70,2013-06-03 20:18:00,
2013-06-03 15:23:00,85.1,58.7,30.46,SSW,208,5.0,11.0,41,0.00,,,0.00,Weather View 32 v70,2013-06-03 20:23:00,
2013-06-03 15:28:00,84.9,59.2,30.46,ESE,118,6.0,11.0,42,0.00,,,0.00,Weather View 32 v70,2013-06-03 20:28:00,
2013-06-03 15:33:00,85.1,58.7,30.46,SE,141,2.0,11.0,41,0.00,,,0.00,Weather View 32 v70,2013-06-03 20:33:00,
2013-06-03 15:38:00,84.8,57.7,30.46,SW,231,4.0,11.0,40,0.00,,,0.00,Weather View 32 v70,2013-06-03 20:38:00,
2013-06-03 15:43:00,85.3,58.2,30.46,South,186,3.0,11.0,40,0.00,,,0.00,Weather View 32 v70,2013-06-03 20:43:00,
2013-06-03 15:48:00,85.1,58.7,30.46,SSE,163,6.0,11.0,41,0.00,,,0.00,Weather View 32 v70,2013-06-03 20:48:00,
2013-06-03 15:52:00,85.1,57.3,30.46,South,186,3.0,11.0,39,0.00,,,0.00,Weather View 32 v70,2013-06-03 20:52:00,
2013-06-03 15:58:00,85.3,58.2,30.45,ESE,118,5.0,11.0,40,0.00,,,0.00,Weather View 32 v70,2013-06-03 20:58:00,
2013-06-03 16:03:00,86.0,58.8,30.45,SSE,163,6.0,11.0,40,0.00,,,0.00,Weather View 32 v70,2013-06-03 21:03:00,
2013-06-03 16:08:00,85.7,56.3,30.45,ESE,118,6.0,12.0,37,0.00,,,0.00,Weather View 32 v70,2013-06-03 21:08:00,
2013-06-03 16:13:00,85.9,57.3,30.45,South,186,3.0,12.0,38,0.00,,,0.00,Weather View 32 v70,2013-06-03 21:13:00,
2013-06-03 16:18:00,86.1,57.4,30.45,South,186,3.0,12.0,38,0.00,,,0.00,Weather View 32 v70,2013-06-03 21:18:00,
2013-06-03 16:23:00,86.6,57.9,30.45,East,96,3.0,12.0,38,0.00,,,0.00,Weather View 32 v70,2013-06-03 21:23:00,
2013-06-03 16:28:00,86.5,57.8,30.45,ESE,118,5.0,12.0,38,0.00,,,0.00,Weather View 32 v70,2013-06-03 21:28:00,
2013-06-03 16:33:00,86.1,58.2,30.44,SSW,208,6.0,12.0,39,0.00,,,0.00,Weather View 32 v70,2013-06-03 21:33:00,
2013-06-03 16:38:00,86.0,58.1,30.44,South,186,6.0,12.0,39,0.00,,,0.00,Weather View 32 v70,2013-06-03 21:38:00,
2013-06-03 16:43:00,86.1,58.2,30.44,ESE,118,5.0,12.0,39,0.00,,,0.00,Weather View 32 v70,2013-06-03 21:43:00,
2013-06-03 16:48:00,86.0,57.3,30.44,SE,141,6.0,12.0,38,0.00,,,0.00,Weather View 32 v70,2013-06-03 21:48:00,
2013-06-03 16:53:00,86.3,58.3,30.44,SE,141,3.0,12.0,39,0.00,,,0.00,Weather View 32 v70,2013-06-03 21:53:00,
2013-06-03 16:58:00,86.5,57.8,30.44,East,96,2.0,12.0,38,0.00,,,0.00,Weather View 32 v70,2013-06-03 21:58:00,
2013-06-03 17:03:00,86.5,57.8,30.43,ESE,118,3.0,12.0,38,0.00,,,0.00,Weather View 32 v70,2013-06-03 22:03:00,
2013-06-03 17:08:00,86.8,59.5,30.43,SE,141,6.0,11.0,40,0.00,,,0.00,Weather View 32 v70,2013-06-03 22:08:00,
2013-06-03 17:13:00,86.3,57.6,30.43,East,96,3.0,11.0,38,0.00,,,0.00,Weather View 32 v70,2013-06-03 22:13:00,
2013-06-03 17:18:00,86.2,58.2,30.43,SSW,208,4.0,11.0,39,0.00,,,0.00,Weather View 32 v70,2013-06-03 22:18:00,
2013-06-03 17:23:00,86.4,59.1,30.43,SSE,163,5.0,11.0,40,0.00,,,0.00,Weather View 32 v70,2013-06-03 22:23:00,
2013-06-03 17:28:00,86.2,57.5,30.43,SE,141,6.0,11.0,38,0.00,,,0.00,Weather View 32 v70,2013-06-03 22:28:00,
2013-06-03 17:33:00,86.5,58.5,30.43,SSW,208,5.0,11.0,39,0.00,,,0.00,Weather View 32 v70,2013-06-03 22:33:00,
2013-06-03 17:38:00,86.4,58.4,30.43,SSE,163,4.0,11.0,39,0.00,,,0.00,Weather View 32 v70,2013-06-03 22:38:00,
2013-06-03 17:43:00,86.3,57.6,30.43,SSW,208,6.0,11.0,38,0.00,,,0.00,Weather View 32 v70,2013-06-03 22:43:00,
2013-06-03 17:48:00,86.6,59.3,30.42,SW,231,4.0,11.0,40,0.00,,,0.00,Weather View 32 v70,2013-06-03 22:48:00,
2013-06-03 17:53:00,86.4,58.4,30.42,SSW,208,5.0,11.0,39,0.00,,,0.00,Weather View 32 v70,2013-06-03 22:53:00,
2013-06-03 17:58:00,86.3,59.0,30.42,SSE,163,5.0,11.0,40,0.00,,,0.00,Weather View 32 v70,2013-06-03 22:58:00,
2013-06-03 18:03:00,86.4,59.1,30.42,South,186,3.0,11.0,40,0.00,,,0.00,Weather View 32 v70,2013-06-03 23:03:00,
2013-06-03 18:08:00,86.6,59.3,30.42,ESE,118,3.0,10.0,40,0.00,,,0.00,Weather View 32 v70,2013-06-03 23:08:00,
2013-06-03 18:13:00,86.3,59.0,30.42,SE,141,5.0,10.0,40,0.00,,,0.00,Weather View 32 v70,2013-06-03 23:13:00,
2013-06-03 18:18:00,86.1,58.9,30.42,South,186,7.0,10.0,40,0.00,,,0.00,Weather View 32 v70,2013-06-03 23:18:00,
2013-06-03 18:23:00,86.2,59.6,30.42,ESE,118,4.0,10.0,41,0.00,,,0.00,Weather View 32 v70,2013-06-03 23:23:00,
2013-06-03 18:28:00,86.5,61.3,30.42,SE,141,6.0,10.0,43,0.00,,,0.00,Weather View 32 v70,2013-06-03 23:28:00,
2013-06-03 18:33:00,86.4,59.8,30.42,SSE,163,5.0,9.0,41,0.00,,,0.00,Weather View 32 v70,2013-06-03 23:33:00,
2013-06-03 18:38:00,86.2,59.0,30.42,SSE,163,5.0,9.0,40,0.00,,,0.00,Weather View 32 v70,2013-06-03 23:38:00,
2013-06-03 18:43:00,86.1,58.9,30.42,SSE,163,4.0,9.0,40,0.00,,,0.00,Weather View 32 v70,2013-06-03 23:43:00,
2013-06-03 18:48:00,86.1,58.9,30.42,SE,141,5.0,9.0,40,0.00,,,0.00,Weather View 32 v70,2013-06-03 23:48:00,
2013-06-03 18:53:00,85.7,59.2,30.42,SSE,163,5.0,9.0,41,0.00,,,0.00,Weather View 32 v70,2013-06-03 23:53:00,
2013-06-03 18:58:00,85.7,59.2,30.42,SE,141,5.0,9.0,41,0.00,,,0.00,Weather View 32 v70,2013-06-03 23:58:00,
2013-06-03 19:03:00,85.7,59.9,30.42,SE,141,4.0,9.0,42,0.00,,,0.00,Weather View 32 v70,2013-06-04 00:03:00,
2013-06-03 19:08:00,85.8,60.0,30.42,SE,141,3.0,9.0,42,0.00,,,0.00,Weather View 32 v70,2013-06-04 00:08:00,
2013-06-03 19:13:00,85.7,59.9,30.42,ESE,118,5.0,9.0,42,0.00,,,0.00,Weather View 32 v70,2013-06-04 00:13:00,
2013-06-03 19:18:00,85.5,59.7,30.42,ESE,118,5.0,9.0,42,0.00,,,0.00,Weather View 32 v70,2013-06-04 00:18:00,
2013-06-03 19:23:00,85.3,59.5,30.42,SSE,163,5.0,8.0,42,0.00,,,0.00,Weather View 32 v70,2013-06-04 00:23:00,
2013-06-03 19:28:00,85.2,60.1,30.42,SE,141,3.0,8.0,43,0.00,,,0.00,Weather View 32 v70,2013-06-04 00:28:00,
2013-06-03 19:33:00,84.1,61.0,30.42,ESE,118,8.0,8.0,46,0.00,,,0.00,Weather View 32 v70,2013-06-04 00:33:00,
2013-06-03 19:38:00,83.7,61.3,30.42,East,96,4.0,11.0,47,0.00,,,0.00,Weather View 32 v70,2013-06-04 00:38:00,
2013-06-03 19:43:00,83.4,61.6,30.42,ESE,118,6.0,11.0,48,0.00,,,0.00,Weather View 32 v70,2013-06-04 00:43:00,
2013-06-03 19:48:00,83.2,62.0,30.42,ESE,118,5.0,11.0,49,0.00,,,0.00,Weather View 32 v70,2013-06-04 00:48:00,
2013-06-03 19:53:00,82.8,62.2,30.42,East,96,5.0,11.0,50,0.00,,,0.00,Weather View 32 v70,2013-06-04 00:53:00,
2013-06-03 19:58:00,82.3,62.3,30.43,ESE,118,5.0,11.0,51,0.00,,,0.00,Weather View 32 v70,2013-06-04 00:58:00,
2013-06-03 20:03:00,82.0,62.6,30.42,SE,141,4.0,11.0,52,0.00,,,0.00,Weather View 32 v70,2013-06-04 01:03:00,
2013-06-03 20:08:00,81.5,62.7,30.43,ESE,118,5.0,11.0,53,0.00,,,0.00,Weather View 32 v70,2013-06-04 01:08:00,
2013-06-03 20:13:00,81.2,62.4,30.43,ESE,118,4.0,11.0,53,0.00,,,0.00,Weather View 32 v70,2013-06-04 01:13:00,
2013-06-03 20:18:00,81.0,62.7,30.43,East,96,4.0,11.0,54,0.00,,,0.00,Weather View 32 v70,2013-06-04 01:18:00,
2013-06-03 20:23:00,80.9,62.6,30.43,East,96,8.0,11.0,54,0.00,,,0.00,Weather View 32 v70,2013-06-04 01:23:00,
2013-06-03 20:28:00,80.3,62.6,30.43,ESE,118,5.0,11.0,55,0.00,,,0.00,Weather View 32 v70,2013-06-04 01:28:00,
2013-06-03 20:33:00,80.0,62.3,30.43,East,96,5.0,11.0,55,0.00,,,0.00,Weather View 32 v70,2013-06-04 01:33:00,
2013-06-03 20:38:00,79.6,62.5,30.43,East,96,6.0,10.0,56,0.00,,,0.00,Weather View 32 v70,2013-06-04 01:38:00,
2013-06-03 20:43:00,79.3,62.7,30.43,East,96,5.0,8.0,57,0.00,,,0.00,Weather View 32 v70,2013-06-04 01:43:00,
2013-06-03 20:48:00,79.2,62.6,30.43,East,96,5.0,8.0,57,0.00,,,0.00,Weather View 32 v70,2013-06-04 01:48:00,
2013-06-03 20:53:00,78.9,62.8,30.43,East,96,5.0,8.0,58,0.00,,,0.00,Weather View 32 v70,2013-06-04 01:53:00,
2013-06-03 20:58:00,78.5,62.9,30.43,East,96,6.0,8.0,59,0.00,,,0.00,Weather View 32 v70,2013-06-04 01:58:00,
2013-06-03 21:03:00,78.2,63.1,30.44,ESE,118,5.0,8.0,60,0.00,,,0.00,Weather View 32 v70,2013-06-04 02:03:00,
2013-06-03 21:08:00,78.1,63.0,30.44,East,96,8.0,8.0,60,0.00,,,0.00,Weather View 32 v70,2013-06-04 02:08:00,
2013-06-03 21:13:00,77.6,62.6,30.43,East,96,6.0,8.0,60,0.00,,,0.00,Weather View 32 v70,2013-06-04 02:13:00,
2013-06-03 21:18:00,77.3,62.8,30.44,ESE,118,5.0,8.0,61,0.00,,,0.00,Weather View 32 v70,2013-06-04 02:18:00,
2013-06-03 21:23:00,76.8,62.7,30.44,ESE,118,5.0,8.0,62,0.00,,,0.00,Weather View 32 v70,2013-06-04 02:23:00,
2013-06-03 21:28:00,76.4,62.8,30.44,ESE,118,5.0,8.0,63,0.00,,,0.00,Weather View 32 v70,2013-06-04 02:28:00,
2013-06-03 21:33:00,76.1,63.0,30.44,ESE,118,6.0,8.0,64,0.00,,,0.00,Weather View 32 v70,2013-06-04 02:33:00,
2013-06-03 21:38:00,76.1,63.0,30.44,ESE,118,5.0,9.0,64,0.00,,,0.00,Weather View 32 v70,2013-06-04 02:38:00,
2013-06-03 21:43:00,75.9,62.4,30.44,SE,141,5.0,9.0,63,0.00,,,0.00,Weather View 32 v70,2013-06-04 02:43:00,
2013-06-03 21:48:00,75.8,62.7,30.44,SE,141,5.0,9.0,64,0.00,,,0.00,Weather View 32 v70,2013-06-04 02:48:00,
2013-06-03 21:53:00,75.6,62.5,30.44,ESE,118,6.0,9.0,64,0.00,,,0.00,Weather View 32 v70,2013-06-04 02:53:00,
2013-06-03 21:58:00,75.6,62.5,30.44,ESE,118,4.0,9.0,64,0.00,,,0.00,Weather View 32 v70,2013-06-04 02:58:00,
2013-06-03 22:03:00,75.4,62.8,30.44,ESE,118,5.0,9.0,65,0.00,,,0.00,Weather View 32 v70,2013-06-04 03:03:00,
2013-06-03 22:08:00,75.3,62.7,30.44,East,96,5.0,9.0,65,0.00,,,0.00,Weather View 32 v70,2013-06-04 03:08:00,
2013-06-03 22:13:00,75.2,62.6,30.45,East,96,6.0,9.0,65,0.00,,,0.00,Weather View 32 v70,2013-06-04 03:13:00,
2013-06-03 22:18:00,75.1,62.5,30.45,SE,141,6.0,9.0,65,0.00,,,0.00,Weather View 32 v70,2013-06-04 03:18:00,
2013-06-03 22:23:00,74.9,62.7,30.45,ESE,118,4.0,9.0,66,0.00,,,0.00,Weather View 32 v70,2013-06-04 03:23:00,
2013-06-03 22:28:00,74.8,62.6,30.45,ESE,118,5.0,9.0,66,0.00,,,0.00,Weather View 32 v70,2013-06-04 03:28:00,
2013-06-03 22:33:00,74.6,62.4,30.45,East,96,3.0,9.0,66,0.00,,,0.00,Weather View 32 v70,2013-06-04 03:33:00,
2013-06-03 22:38:00,74.4,62.7,30.45,ESE,118,5.0,9.0,67,0.00,,,0.00,Weather View 32 v70,2013-06-04 03:38:00,
2013-06-03 22:43:00,74.2,62.9,30.45,East,96,5.0,9.0,68,0.00,,,0.00,Weather View 32 v70,2013-06-04 03:43:00,
2013-06-03 22:48:00,74.0,62.7,30.45,ESE,118,5.0,9.0,68,0.00,,,0.00,Weather View 32 v70,2013-06-04 03:48:00,
2013-06-03 22:53:00,73.8,63.0,30.45,ESE,118,3.0,9.0,69,0.00,,,0.00,Weather View 32 v70,2013-06-04 03:53:00,
2013-06-03 22:58:00,73.5,62.7,30.45,ESE,118,5.0,9.0,69,0.00,,,0.00,Weather View 32 v70,2013-06-04 03:58:00,
2013-06-03 23:01:00,73.5,62.7,30.45,ESE,118,5.0,9.0,69,0.00,,,0.00,Weather View 32 v70,2013-06-04 04:01:00,
2013-06-03 23:02:00,73.5,62.7,30.45,East,96,5.0,9.0,69,0.00,,,0.00,Weather View 32 v70,2013-06-04 04:02:00,
2013-06-03 23:07:00,73.3,62.9,30.45,ESE,118,5.0,9.0,70,0.00,,,0.00,Weather View 32 v70,2013-06-04 04:07:00,
2013-06-03 23:12:00,73.2,62.8,30.45,ESE,118,5.0,9.0,70,0.00,,,0.00,Weather View 32 v70,2013-06-04 04:12:00,
2013-06-03 23:17:00,72.9,62.9,30.45,SE,141,4.0,8.0,71,0.00,,,0.00,Weather View 32 v70,2013-06-04 04:17:00,
2013-06-03 23:22:00,72.7,62.7,30.45,ESE,118,5.0,8.0,71,0.00,,,0.00,Weather View 32 v70,2013-06-04 04:22:00,
2013-06-03 23:27:00,72.5,62.9,30.45,ESE,118,4.0,8.0,72,0.00,,,0.00,Weather View 32 v70,2013-06-04 04:27:00,
2013-06-03 23:32:00,72.3,62.7,30.45,ESE,118,5.0,8.0,72,0.00,,,0.00,Weather View 32 v70,2013-06-04 04:32:00,
2013-06-03 23:37:00,72.4,62.8,30.46,ESE,118,6.0,8.0,72,0.00,,,0.00,Weather View 32 v70,2013-06-04 04:37:00,
2013-06-03 23:42:00,72.4,62.8,30.46,ESE,118,6.0,8.0,72,0.00,,,0.00,Weather View 32 v70,2013-06-04 04:42:00,
2013-06-03 23:47:00,72.2,63.0,30.46,East,96,3.0,8.0,73,0.00,,,0.00,Weather View 32 v70,2013-06-04 04:47:00,
2013-06-03 23:52:00,72.1,62.9,30.46,ESE,118,6.0,8.0,73,0.00,,,0.00,Weather View 32 v70,2013-06-04 04:52:00,
2013-06-03 23:57:00,72.1,62.9,30.46,ESE,118,6.0,8.0,73,0.00,,,0.00,Weather View 32 v70,2013-06-04 04:57:00,